Location: Newark
(41.8083°N, 72.2500°W)
Time: 19:19:08
(UTC+00:00)

Courier 1B - Pass Details

Date: 05 December 2021
Orbit: 962 x 1209 km, 28.3° (Epoch: 19 January)

Event Time Altitude Azimuth Distance (km) Brightness Sun altitude
Rises 00:34:56 0° 255° (WSW) 3,928 11.6 -35.9°
Reaches altitude 10° 00:38:26 10° 241° (WSW) 2,923 10.6 -36.6°
Enters shadow 00:42:57 21° 202° (SSW) 2,138 9.4 -37.4°
Maximum altitude 00:43:37 22° 194° (SSW) 2,115 - -37.5°
Drops below altitude 10° 00:48:36 10° 147° (SSE) 2,789 - -38.4°
Sets 00:51:51 0° 132° (SE) 3,702 - -39.0°
